map of KLF home
KLF - Airport
Location
City:  Kaluga, Kaluzhskaya, Russian Federation (Russia)
Name:Grabtsevo Airport
ICAO:UUBC
IATA:KLF

Details
Type:Airport (Aerodrome, Airfield)
Use:Public/Civil, International (customs port of entry)
Latitude:5432'55"N (54.548611)
Longitude:3622'17"E (36.371389)
Elevation:666 ft (203 m)
Variation:10.28E (WMM2015 magnetic declination)
0.12 annual change
Runways:1
Longest:7218 × 148 ft (2200 × 45 m), paved

Weather
METAR:UUBC 190300Z 32003MPS CAVOK 04/02 Q1012 NOSIG RMK QFE742/0990

Related Locations
Nearby:
Farthest:CHT: 10795 mi / 17373 km
Waitangi [Tuuta], CIT, NZ

Find:

   beyond  
but within

Other Information
Maps:
NOTAMs:
Links:
Sources:

  
flag of Russian Federation (Russia)
flag of Kaluzhskaya
  

Airport Diagram

Airport diagram for KLF

Airport diagram PDF from AIP of the Russian Federation

Sectional Chart

Flight Planning
at skyvector.com

Satellite Image

Google Maps Satellite view

Yandex Maps Satellite view


 

Copyright © 2004-2017 Karl L. Swartz. All rights reserved.
The Great Circle Mapper name and logo are trademarks of the Great Circle Mapper.
All other trademarks mentioned herein belong to their respective owners.
Please see credits for attibutions and further copyright information.

  Follow gcmap on Facebook Follow gcmap on Twitter Follow gcmap on Google+ GCmap on LinkedIn

hCard Microformat

Geo Microformat